Satellite-Ground Cal/Val Site Overpasses Predictions

Prediction of Satellite NPP Overpassing Cal/Val Site: Antarctic Dome C

Ground Cal/Val Site Location: Latitude: -75.10, Longitude: 123.35; Satellite-Ground Site NADIR distance within 100 km.

Table of predicted overpasses for the next 14.0 days since TLE Epoch: 9/25/2021
Interval Starting Time Ending Time Minimum Distance Time Minimum Distance (km)
1 09/26/2021 15:02:03 09/26/2021 15:02:26 09/26/2021 15:02:15 62.90
2 09/27/2021 14:43:13 09/27/2021 14:43:39 09/27/2021 14:43:26 46.50
3 09/28/2021 07:44:54 09/28/2021 07:45:14 09/28/2021 07:45:04 72.49
4 09/29/2021 07:26:02 09/29/2021 07:26:29 09/29/2021 07:26:16 35.34
5 10/02/2021 14:49:28 10/02/2021 14:49:57 10/02/2021 14:49:43 10.80
6 10/04/2021 07:32:19 10/04/2021 07:32:48 10/04/2021 07:32:34 2.15
7 10/07/2021 14:55:47 10/07/2021 14:56:15 10/07/2021 14:56:01 25.64
